Location: Aldenham
(51.6667°N, 0.3500°W)
Time: 20:50:54
(UTC+00:00)

Vanguard 2 Rocket - Pass Details

Date: 22 February 2026
Orbit: 553 x 3286 km, 32.9° (Epoch: 8 March)

Event Time Altitude Azimuth Distance (km) Brightness Sun altitude
Rises 09:09:40 0° 196° (SSW) 6,962 11.8 16.5°
Reaches altitude 10° 09:16:12 10° 182° (S) 6,154 11.8 17.2°
Maximum altitude 09:28:24 20° 144° (SE) 5,321 13.6 18.6°
Drops below altitude 10° 09:39:47 10° 105° (ESE) 5,758 12.1 19.8°
Sets 09:45:28 0° 91° (E) 6,410 11.8 20.3°
